GSAT0233 (GALILEO 33)

Last updated on Sun Jun 21 2026 00:02:55 GMT+0000 (Coordinated Universal Time)

1 67160U 25302A 26170.57978300 -.00000013 00000+0 00000+0 0 9990 2 67160 54.3370 102.0625 0000767 220.2514 324.6772 1.70473973 3168
UTC large
Height (km)
Speed (km/s)
/
Latitude / Longitude
Inclination (degrees)
Orbital Period (minutes)
Azimuth
Elevation
Range (km)
Doppler Factor

Next 0 passes for location: London (51.5072 / 0.1276)

No passes found over London.
GSAT0233 (GALILEO 33)